Time,TemperatureF,DewpointF,PressureIn,WindDirection,WindDirectionDegrees,WindSpeedMPH,WindSpeedGustMPH,Humidity,HourlyPrecipIn,Conditions,Clouds,dailyrainin,SoftwareType,DateUTC
2013-01-27 00:00:00,43.3,29.5,29.85,NE,48,3.0,7.0,58,0.00,CLR,,0.00,WeatherDisplay:10.37,2013-01-26 23:00:00,
2013-01-27 00:15:00,43.0,29.6,29.85,NE,46,3.0,7.0,59,0.00,CLR,,0.00,WeatherDisplay:10.37,2013-01-26 23:15:00,
2013-01-27 00:21:00,43.0,29.6,29.85,NE,54,3.0,7.0,59,0.00,CLR,,0.00,WeatherDisplay:10.37,2013-01-26 23:21:00,
2013-01-27 00:31:00,43.0,29.7,29.85,NE,48,6.0,8.0,59,0.00,CLR,,0.00,WeatherDisplay:10.37,2013-01-26 23:31:00,
2013-01-27 00:41:00,43.1,29.3,29.85,NE,34,5.0,8.0,58,0.00,CLR,,0.00,WeatherDisplay:10.37,2013-01-26 23:41:00,
2013-01-27 00:51:00,43.1,29.3,29.85,NNE,29,5.0,8.0,58,0.00,CLR,,0.00,WeatherDisplay:10.37,2013-01-26 23:51:00,
2013-01-27 01:01:00,43.2,29.0,29.86,NE,40,5.0,8.0,57,0.00,CLR,,0.00,WeatherDisplay:10.37,2013-01-27 00:01:00,
2013-01-27 01:11:00,43.3,29.5,29.86,NE,37,5.0,9.0,58,0.00,CLR,,0.00,WeatherDisplay:10.37,2013-01-27 00:11:00,
2013-01-27 01:21:00,43.4,29.6,29.87,NE,38,5.0,8.0,58,0.00,CLR,,0.00,WeatherDisplay:10.37,2013-01-27 00:21:00,
2013-01-27 01:31:00,43.6,29.4,29.87,NE,36,5.0,8.0,57,0.00,CLR,,0.00,WeatherDisplay:10.37,2013-01-27 00:31:00,
2013-01-27 01:41:00,43.7,29.4,29.86,NE,40,3.0,8.0,57,0.00,CLR,,0.00,WeatherDisplay:10.37,2013-01-27 00:41:00,
2013-01-27 01:51:00,43.5,29.3,29.87,NNE,33,5.0,7.0,57,0.00,CLR,,0.00,WeatherDisplay:10.37,2013-01-27 00:51:00,
2013-01-27 02:01:00,43.5,29.2,29.87,NNE,32,6.0,9.0,57,0.00,CLR,,0.00,WeatherDisplay:10.37,2013-01-27 01:01:00,
2013-01-27 02:11:00,43.4,29.6,29.88,NE,40,5.0,10.0,58,0.00,CLR,,0.00,WeatherDisplay:10.37,2013-01-27 01:11:00,
2013-01-27 02:21:00,42.3,29.8,29.88,NE,49,6.0,10.0,61,0.00,CLR,,0.00,WeatherDisplay:10.37,2013-01-27 01:21:00,
2013-01-27 02:30:00,41.6,29.5,29.88,NNE,23,6.0,12.0,62,0.00,CLR,,0.00,WeatherDisplay:10.37,2013-01-27 01:30:00,
2013-01-27 02:41:00,41.2,29.9,29.88,NNE,26,8.0,12.0,64,0.00,CLR,,0.00,WeatherDisplay:10.37,2013-01-27 01:41:00,
2013-01-27 02:51:00,40.9,30.0,29.88,NE,34,6.0,10.0,65,0.00,CLR,,0.00,WeatherDisplay:10.37,2013-01-27 01:51:00,
2013-01-27 03:01:00,40.9,30.0,29.89,NNE,27,7.0,12.0,65,0.00,CLR,,0.00,WeatherDisplay:10.37,2013-01-27 02:01:00,
2013-01-27 03:11:00,40.8,29.9,29.89,NE,44,7.0,12.0,65,0.00,CLR,,0.00,WeatherDisplay:10.37,2013-01-27 02:11:00,
2013-01-27 03:21:00,40.6,29.8,29.89,NE,37,6.0,12.0,65,0.00,CLR,,0.00,WeatherDisplay:10.37,2013-01-27 02:21:00,
2013-01-27 03:31:00,40.4,29.9,29.89,ENE,58,8.0,12.0,66,0.00,CLR,,0.00,WeatherDisplay:10.37,2013-01-27 02:31:00,
2013-01-27 03:41:00,40.4,29.9,29.89,NE,39,8.0,12.0,66,0.00,CLR,,0.00,WeatherDisplay:10.37,2013-01-27 02:41:00,
2013-01-27 03:51:00,40.7,29.8,29.89,ENE,64,7.0,14.0,65,0.00,CLR,,0.00,WeatherDisplay:10.37,2013-01-27 02:51:00,
2013-01-27 04:01:00,40.6,29.7,29.89,NE,53,7.0,15.0,65,0.00,CLR,,0.00,WeatherDisplay:10.37,2013-01-27 03:01:00,
2013-01-27 04:11:00,40.6,29.8,29.89,NE,49,7.0,16.0,65,0.00,CLR,,0.00,WeatherDisplay:10.37,2013-01-27 03:11:00,
2013-01-27 04:21:00,40.5,29.7,29.90,NE,42,5.0,12.0,65,0.00,CLR,,0.00,WeatherDisplay:10.37,2013-01-27 03:21:00,
2013-01-27 04:31:00,40.5,29.6,29.90,NE,51,6.0,12.0,65,0.00,CLR,,0.00,WeatherDisplay:10.37,2013-01-27 03:31:00,
2013-01-27 04:41:00,40.5,29.7,29.90,NE,38,6.0,10.0,65,0.00,CLR,,0.00,WeatherDisplay:10.37,2013-01-27 03:41:00,
2013-01-27 04:51:00,40.6,29.8,29.89,NE,45,5.0,12.0,65,0.00,CLR,,0.00,WeatherDisplay:10.37,2013-01-27 03:51:00,
2013-01-27 05:01:00,41.1,29.8,29.90,NE,42,6.0,10.0,64,0.00,CLR,,0.00,WeatherDisplay:10.37,2013-01-27 04:01:00,
2013-01-27 05:11:00,41.5,29.8,29.89,NE,47,6.0,12.0,63,0.00,CLR,,0.00,WeatherDisplay:10.37,2013-01-27 04:11:00,
2013-01-27 05:21:00,41.5,29.4,29.89,ENE,60,6.0,12.0,62,0.00,CLR,,0.00,WeatherDisplay:10.37,2013-01-27 04:21:00,
2013-01-27 05:30:00,41.3,29.6,29.89,NE,44,5.0,9.0,63,0.00,CLR,,0.00,WeatherDisplay:10.37,2013-01-27 04:30:00,
2013-01-27 05:40:00,40.9,29.7,29.89,NE,45,5.0,8.0,64,0.00,CLR,,0.00,WeatherDisplay:10.37,2013-01-27 04:40:00,
2013-01-27 05:50:00,40.9,29.7,29.89,NE,47,5.0,9.0,64,0.00,CLR,,0.00,WeatherDisplay:10.37,2013-01-27 04:50:00,
2013-01-27 06:00:00,41.1,29.5,29.90,NE,45,6.0,12.0,63,0.00,CLR,,0.00,WeatherDisplay:10.37,2013-01-27 05:00:00,
2013-01-27 06:05:00,41.1,29.8,29.90,NE,42,5.0,9.0,64,0.00,CLR,,0.00,WeatherDisplay:10.37,2013-01-27 05:05:00,
2013-01-27 06:11:00,41.2,29.6,29.90,NE,45,5.0,8.0,63,0.00,CLR,,0.00,WeatherDisplay:10.37,2013-01-27 05:11:00,
2013-01-27 06:20:00,41.5,29.4,29.90,ENE,60,5.0,10.0,62,0.00,CLR,,0.00,WeatherDisplay:10.37,2013-01-27 05:20:00,
2013-01-27 06:30:00,41.3,29.6,29.91,NNE,24,5.0,9.0,63,0.00,CLR,,0.00,WeatherDisplay:10.37,2013-01-27 05:30:00,
2013-01-27 06:41:00,41.5,29.4,29.91,NE,45,7.0,12.0,62,0.00,CLR,,0.00,WeatherDisplay:10.37,2013-01-27 05:41:00,
2013-01-27 06:50:00,41.6,29.1,29.90,NE,39,6.0,10.0,61,0.00,CLR,,0.00,WeatherDisplay:10.37,2013-01-27 05:50:00,
2013-01-27 07:00:00,41.6,29.5,29.90,NE,39,6.0,9.0,62,0.00,CLR,,0.00,WeatherDisplay:10.37,2013-01-27 06:00:00,
2013-01-27 07:05:00,41.5,29.5,29.91,NE,36,6.0,9.0,62,0.00,CLR,,0.00,WeatherDisplay:10.37,2013-01-27 06:05:00,
2013-01-27 07:10:00,41.5,29.4,29.91,NE,44,5.0,8.0,62,0.00,CLR,,0.00,WeatherDisplay:10.37,2013-01-27 06:10:00,
2013-01-27 07:20:00,41.8,29.7,29.91,NE,43,6.0,9.0,62,0.00,CLR,,0.00,WeatherDisplay:10.37,2013-01-27 06:20:00,
2013-01-27 07:30:00,42.0,29.5,29.91,NE,44,6.0,9.0,61,0.00,CLR,,0.00,WeatherDisplay:10.37,2013-01-27 06:30:00,
2013-01-27 07:40:00,42.0,29.9,29.92,NE,38,5.0,8.0,62,0.00,CLR,,0.00,WeatherDisplay:10.37,2013-01-27 06:40:00,
2013-01-27 07:50:00,41.8,29.8,29.92,NE,48,3.0,7.0,62,0.00,CLR,,0.00,WeatherDisplay:10.37,2013-01-27 06:50:00,
2013-01-27 08:00:00,42.1,30.0,29.92,NE,39,3.0,8.0,62,0.00,CLR,,0.00,WeatherDisplay:10.37,2013-01-27 07:00:00,
2013-01-27 08:15:00,42.8,29.9,29.93,NE,39,5.0,8.0,60,0.00,CLR,,0.00,WeatherDisplay:10.37,2013-01-27 07:15:00,
2013-01-27 08:20:00,43.1,29.7,29.93,NE,47,6.0,9.0,59,0.00,CLR,,0.00,WeatherDisplay:10.37,2013-01-27 07:20:00,
2013-01-27 08:30:00,43.3,29.9,29.94,NNE,21,6.0,8.0,59,0.00,CLR,,0.00,WeatherDisplay:10.37,2013-01-27 07:30:00,
2013-01-27 08:40:00,43.9,30.0,29.94,NE,41,5.0,9.0,58,0.00,CLR,,0.00,WeatherDisplay:10.37,2013-01-27 07:40:00,
2013-01-27 08:50:00,44.5,30.6,29.94,NE,39,5.0,8.0,58,0.00,CLR,,0.00,WeatherDisplay:10.37,2013-01-27 07:50:00,
2013-01-27 09:00:00,44.8,30.5,29.95,NE,40,5.0,8.0,57,0.00,CLR,,0.00,WeatherDisplay:10.37,2013-01-27 08:00:00,
2013-01-27 09:10:00,45.0,30.2,29.95,NNE,28,6.0,12.0,56,0.00,CLR,,0.00,WeatherDisplay:10.37,2013-01-27 08:10:00,
2013-01-27 09:20:00,45.1,30.3,29.95,NE,37,6.0,9.0,56,0.00,CLR,,0.00,WeatherDisplay:10.37,2013-01-27 08:20:00,
2013-01-27 09:31:00,45.6,30.8,29.96,NE,42,5.0,8.0,56,0.00,CLR,,0.00,WeatherDisplay:10.37,2013-01-27 08:31:00,
2013-01-27 09:40:00,45.8,30.5,29.96,NNE,22,5.0,8.0,55,0.00,CLR,,0.00,WeatherDisplay:10.37,2013-01-27 08:40:00,
2013-01-27 09:50:00,46.1,30.8,29.96,NNE,25,5.0,8.0,55,0.00,CLR,,0.00,WeatherDisplay:10.37,2013-01-27 08:50:00,
2013-01-27 10:00:00,46.4,31.1,29.96,NNE,31,3.0,7.0,55,0.00,CLR,,0.00,WeatherDisplay:10.37,2013-01-27 09:00:00,
2013-01-27 10:10:00,46.7,30.9,29.96,NE,44,5.0,7.0,54,0.00,CLR,,0.00,WeatherDisplay:10.37,2013-01-27 09:10:00,
2013-01-27 10:20:00,47.0,31.2,29.97,NNE,21,3.0,7.0,54,0.00,CLR,,0.00,WeatherDisplay:10.37,2013-01-27 09:20:00,
2013-01-27 10:30:00,47.4,32.0,29.97,NE,56,3.0,5.0,55,0.00,CLR,,0.00,WeatherDisplay:10.37,2013-01-27 09:30:00,
2013-01-27 10:40:00,48.1,32.2,29.97,NE,44,3.0,6.0,54,0.00,CLR,,0.00,WeatherDisplay:10.37,2013-01-27 09:40:00,
2013-01-27 10:50:00,48.4,31.5,29.97,NE,54,5.0,7.0,52,0.00,CLR,,0.00,WeatherDisplay:10.37,2013-01-27 09:50:00,
2013-01-27 11:00:00,48.8,31.9,29.97,NE,50,2.0,6.0,52,0.00,CLR,,0.00,WeatherDisplay:10.37,2013-01-27 10:00:00,
2013-01-27 11:10:00,49.0,31.6,29.97,NNE,29,5.0,8.0,51,0.00,CLR,,0.00,WeatherDisplay:10.37,2013-01-27 10:10:00,
2013-01-27 11:20:00,48.6,30.8,29.97,NNE,26,5.0,7.0,50,0.00,CLR,,0.00,WeatherDisplay:10.37,2013-01-27 10:20:00,
2013-01-27 11:30:00,49.6,31.7,29.97,NE,45,3.0,8.0,50,0.00,CLR,,0.00,WeatherDisplay:10.37,2013-01-27 10:30:00,
2013-01-27 11:40:00,50.0,31.0,29.97,ENE,64,5.0,8.0,48,0.00,CLR,,0.00,WeatherDisplay:10.37,2013-01-27 10:40:00,
2013-01-27 11:50:00,50.8,31.8,29.97,NE,56,2.0,6.0,48,0.00,CLR,,0.00,WeatherDisplay:10.37,2013-01-27 10:50:00,
2013-01-27 12:01:00,50.9,31.3,29.97,ENE,69,5.0,8.0,47,0.00,CLR,,0.00,WeatherDisplay:10.37,2013-01-27 11:01:00,
2013-01-27 12:10:00,50.8,31.3,29.97,ESE,103,3.0,5.0,47,0.00,CLR,,0.00,WeatherDisplay:10.37,2013-01-27 11:10:00,
2013-01-27 12:20:00,51.2,31.1,29.97,ENE,64,2.0,4.0,46,0.00,CLR,,0.00,WeatherDisplay:10.37,2013-01-27 11:20:00,
2013-01-27 12:30:00,50.6,31.1,29.97,NE,41,2.0,6.0,47,0.00,CLR,,0.00,WeatherDisplay:10.37,2013-01-27 11:30:00,
2013-01-27 12:40:00,52.4,31.6,29.97,NE,40,1.0,4.0,45,0.00,CLR,,0.00,WeatherDisplay:10.37,2013-01-27 11:40:00,
2013-01-27 12:50:00,52.0,31.3,29.97,NE,35,2.0,5.0,45,0.00,CLR,,0.00,WeatherDisplay:10.37,2013-01-27 11:50:00,
2013-01-27 13:00:00,51.4,30.7,29.97,North,5,2.0,4.0,45,0.00,CLR,,0.00,WeatherDisplay:10.37,2013-01-27 12:00:00,
2013-01-27 13:10:00,51.5,31.4,29.97,WNW,282,2.0,4.0,46,0.00,CLR,,0.00,WeatherDisplay:10.37,2013-01-27 12:10:00,
2013-01-27 13:20:00,52.1,30.9,29.97,North,357,1.0,4.0,44,0.00,CLR,,0.00,WeatherDisplay:10.37,2013-01-27 12:20:00,
2013-01-27 13:30:00,52.4,31.1,29.97,ESE,115,1.0,4.0,44,0.00,CLR,,0.00,WeatherDisplay:10.37,2013-01-27 12:30:00,
2013-01-27 13:40:00,52.8,30.9,29.97,ESE,121,1.0,3.0,43,0.00,CLR,,0.00,WeatherDisplay:10.37,2013-01-27 12:40:00,
2013-01-27 13:50:00,52.8,29.7,29.97,SW,219,2.0,6.0,41,0.00,CLR,,0.00,WeatherDisplay:10.37,2013-01-27 12:50:00,
2013-01-27 14:00:00,52.6,30.1,29.97,SE,137,2.0,5.0,42,0.00,CLR,,0.00,WeatherDisplay:10.37,2013-01-27 13:00:00,
2013-01-27 14:10:00,52.4,31.1,29.96,SW,217,3.0,7.0,44,0.00,CLR,,0.00,WeatherDisplay:10.37,2013-01-27 13:10:00,
2013-01-27 14:20:00,50.9,31.9,29.97,SW,231,5.0,7.0,48,0.00,CLR,,0.00,WeatherDisplay:10.37,2013-01-27 13:20:00,
2013-01-27 14:30:00,51.2,32.2,29.96,WSW,238,5.0,9.0,48,0.00,CLR,,0.00,WeatherDisplay:10.37,2013-01-27 13:30:00,
2013-01-27 14:40:00,51.4,32.3,29.96,WSW,237,3.0,6.0,48,0.00,CLR,,0.00,WeatherDisplay:10.37,2013-01-27 13:40:00,
2013-01-27 14:50:00,51.4,31.9,29.97,SW,233,2.0,6.0,47,0.00,CLR,,0.00,WeatherDisplay:10.37,2013-01-27 13:50:00,
2013-01-27 15:00:00,51.5,32.4,29.97,West,263,7.0,10.0,48,0.00,CLR,,0.00,WeatherDisplay:10.37,2013-01-27 14:00:00,
2013-01-27 15:11:00,51.0,33.0,29.97,WSW,249,6.0,9.0,50,0.00,CLR,,0.00,WeatherDisplay:10.37,2013-01-27 14:11:00,
2013-01-27 15:20:00,50.8,33.3,29.97,WSW,246,6.0,10.0,51,0.00,CLR,,0.00,WeatherDisplay:10.37,2013-01-27 14:20:00,
2013-01-27 15:30:00,50.3,32.8,29.97,WSW,250,7.0,12.0,51,0.00,CLR,,0.00,WeatherDisplay:10.37,2013-01-27 14:30:00,
2013-01-27 15:40:00,50.3,33.3,29.97,SW,231,5.0,9.0,52,0.00,CLR,,0.00,WeatherDisplay:10.37,2013-01-27 14:40:00,
2013-01-27 15:51:00,50.5,33.5,29.97,West,261,3.0,8.0,52,0.00,CLR,,0.00,WeatherDisplay:10.37,2013-01-27 14:51:00,
2013-01-27 16:00:00,50.3,33.3,29.97,WSW,255,5.0,10.0,52,0.00,CLR,,0.00,WeatherDisplay:10.37,2013-01-27 15:00:00,
2013-01-27 16:11:00,50.4,33.4,29.97,WSW,257,3.0,12.0,52,0.00,CLR,,0.00,WeatherDisplay:10.37,2013-01-27 15:11:00,
2013-01-27 16:20:00,50.2,33.7,29.97,West,278,5.0,9.0,53,0.00,CLR,,0.00,WeatherDisplay:10.37,2013-01-27 15:20:00,
2013-01-27 16:30:00,50.0,33.5,29.97,West,264,3.0,8.0,53,0.00,CLR,,0.00,WeatherDisplay:10.37,2013-01-27 15:30:00,
2013-01-27 16:40:00,49.4,33.4,29.97,West,279,5.0,9.0,54,0.00,CLR,,0.00,WeatherDisplay:10.37,2013-01-27 15:40:00,
2013-01-27 16:50:00,49.2,33.7,29.98,WNW,285,5.0,9.0,55,0.00,CLR,,0.00,WeatherDisplay:10.37,2013-01-27 15:50:00,
2013-01-27 17:00:00,48.8,33.8,29.98,West,272,2.0,7.0,56,0.00,CLR,,0.00,WeatherDisplay:10.37,2013-01-27 16:00:00,
2013-01-27 17:11:00,48.4,33.9,29.98,WNW,290,5.0,9.0,57,0.00,CLR,,0.00,WeatherDisplay:10.37,2013-01-27 16:11:00,
2013-01-27 17:20:00,47.8,34.2,29.98,WNW,296,6.0,10.0,59,0.00,CLR,,0.00,WeatherDisplay:10.37,2013-01-27 16:20:00,
2013-01-27 17:31:00,47.6,34.8,29.98,West,279,2.0,8.0,61,0.00,CLR,,0.00,WeatherDisplay:10.37,2013-01-27 16:31:00,
2013-01-27 17:40:00,47.4,35.0,29.99,West,262,2.0,8.0,62,0.00,CLR,,0.00,WeatherDisplay:10.37,2013-01-27 16:40:00,
2013-01-27 17:50:00,47.2,35.2,29.99,WSW,258,2.0,6.0,63,0.00,CLR,,0.00,WeatherDisplay:10.37,2013-01-27 16:50:00,
2013-01-27 18:01:00,47.1,35.1,29.99,West,268,5.0,7.0,63,0.00,CLR,,0.00,WeatherDisplay:10.37,2013-01-27 17:01:00,
2013-01-27 18:10:00,47.1,35.5,29.99,West,265,2.0,7.0,64,0.00,CLR,,0.00,WeatherDisplay:10.37,2013-01-27 17:10:00,
2013-01-27 18:20:00,47.0,35.4,29.99,West,260,2.0,4.0,64,0.00,CLR,,0.00,WeatherDisplay:10.37,2013-01-27 17:20:00,
2013-01-27 18:30:00,46.9,35.7,29.99,West,267,2.0,7.0,65,0.00,CLR,,0.00,WeatherDisplay:10.37,2013-01-27 17:30:00,
2013-01-27 18:40:00,46.9,36.1,29.99,West,271,3.0,6.0,66,0.00,CLR,,0.00,WeatherDisplay:10.37,2013-01-27 17:40:00,
2013-01-27 18:50:00,46.9,36.1,30.00,West,267,2.0,7.0,66,0.00,CLR,,0.00,WeatherDisplay:10.37,2013-01-27 17:50:00,
2013-01-27 19:00:00,47.0,36.2,30.00,WSW,254,2.0,7.0,66,0.00,CLR,,0.00,WeatherDisplay:10.37,2013-01-27 18:00:00,
2013-01-27 19:10:00,47.1,36.3,30.00,West,269,3.0,6.0,66,0.00,CLR,,0.00,WeatherDisplay:10.37,2013-01-27 18:10:00,
2013-01-27 19:20:00,47.0,36.2,30.00,West,273,1.0,4.0,66,0.00,CLR,,0.00,WeatherDisplay:10.37,2013-01-27 18:20:00,
2013-01-27 19:30:00,47.0,36.6,30.00,WSW,257,2.0,5.0,67,0.00,CLR,,0.00,WeatherDisplay:10.37,2013-01-27 18:30:00,
2013-01-27 19:40:00,47.1,36.3,30.00,WSW,258,2.0,5.0,66,0.00,CLR,,0.00,WeatherDisplay:10.37,2013-01-27 18:40:00,
2013-01-27 19:50:00,47.1,36.7,30.00,West,269,2.0,4.0,67,0.00,CLR,,0.00,WeatherDisplay:10.37,2013-01-27 18:50:00,
2013-01-27 20:00:00,47.1,36.7,30.00,West,263,1.0,5.0,67,0.00,CLR,,0.00,WeatherDisplay:10.37,2013-01-27 19:00:00,
2013-01-27 20:10:00,47.1,36.7,30.00,WSW,256,2.0,4.0,67,0.00,CLR,,0.00,WeatherDisplay:10.37,2013-01-27 19:10:00,
2013-01-27 20:20:00,47.0,36.6,30.00,West,268,1.0,4.0,67,0.00,CLR,,0.00,WeatherDisplay:10.37,2013-01-27 19:20:00,
2013-01-27 20:30:00,46.9,36.9,30.00,West,270,1.0,4.0,68,0.00,CLR,,0.00,WeatherDisplay:10.37,2013-01-27 19:30:00,
2013-01-27 20:40:00,46.9,36.9,30.00,WSW,256,1.0,3.0,68,0.00,CLR,,0.00,WeatherDisplay:10.37,2013-01-27 19:40:00,
2013-01-27 20:50:00,46.9,36.9,30.00,WSW,256,0.0,3.0,68,0.00,CLR,,0.00,WeatherDisplay:10.37,2013-01-27 19:50:00,
2013-01-27 21:00:00,46.9,36.9,30.00,WSW,254,0.0,2.0,68,0.00,CLR,,0.00,WeatherDisplay:10.37,2013-01-27 20:00:00,
2013-01-27 21:10:00,47.0,37.0,30.00,WSW,251,0.0,3.0,68,0.00,CLR,,0.00,WeatherDisplay:10.37,2013-01-27 20:10:00,
2013-01-27 21:20:00,46.9,37.3,30.00,West,266,1.0,2.0,69,0.00,CLR,,0.00,WeatherDisplay:10.37,2013-01-27 20:20:00,
2013-01-27 21:30:00,46.9,36.9,30.00,West,276,0.0,2.0,68,0.00,CLR,,0.00,WeatherDisplay:10.37,2013-01-27 20:30:00,
2013-01-27 21:40:00,47.0,37.0,30.00,West,281,0.0,0.0,68,0.00,CLR,,0.00,WeatherDisplay:10.37,2013-01-27 20:40:00,
2013-01-27 21:50:00,46.9,37.3,30.00,West,274,0.0,0.0,69,0.00,CLR,,0.00,WeatherDisplay:10.37,2013-01-27 20:50:00,
2013-01-27 22:00:00,46.9,37.3,30.00,West,275,1.0,3.0,69,0.00,CLR,,0.00,WeatherDisplay:10.37,2013-01-27 21:00:00,
2013-01-27 22:10:00,46.8,37.2,30.00,West,266,1.0,2.0,69,0.00,CLR,,0.00,WeatherDisplay:10.37,2013-01-27 21:10:00,
2013-01-27 22:20:00,46.7,37.4,30.00,West,275,0.0,0.0,70,0.00,CLR,,0.00,WeatherDisplay:10.37,2013-01-27 21:20:00,
2013-01-27 22:30:00,46.8,37.5,30.00,West,259,0.0,0.0,70,0.00,CLR,,0.00,WeatherDisplay:10.37,2013-01-27 21:30:00,
2013-01-27 22:40:00,46.6,37.3,30.00,SW,229,1.0,3.0,70,0.00,CLR,,0.00,WeatherDisplay:10.37,2013-01-27 21:40:00,
2013-01-27 22:50:00,46.6,37.3,30.00,SSW,193,1.0,3.0,70,0.00,CLR,,0.00,WeatherDisplay:10.37,2013-01-27 21:50:00,
2013-01-27 23:00:00,46.7,37.4,30.00,South,189,0.0,3.0,70,0.00,CLR,,0.00,WeatherDisplay:10.37,2013-01-27 22:00:00,
2013-01-27 23:10:00,46.9,38.0,30.01,SW,216,2.0,4.0,71,0.00,CLR,,0.00,WeatherDisplay:10.37,2013-01-27 22:10:00,
2013-01-27 23:20:00,46.8,38.2,30.00,SSW,195,1.0,3.0,72,0.00,CLR,,0.00,WeatherDisplay:10.37,2013-01-27 22:20:00,
2013-01-27 23:30:00,46.9,38.3,30.01,SSE,159,0.0,2.0,72,0.00,CLR,,0.00,WeatherDisplay:10.37,2013-01-27 22:30:00,
2013-01-27 23:40:00,46.9,38.7,30.01,SSW,205,0.0,2.0,73,0.00,CLR,,0.00,WeatherDisplay:10.37,2013-01-27 22:40:00,
2013-01-27 23:50:00,46.9,39.0,30.00,SSW,205,1.0,3.0,74,0.00,CLR,,0.00,WeatherDisplay:10.37,2013-01-27 22:50:00,